| time (UTC) | temp C | wind direction | speed KPH | gust KPH | rain 1hr cm | rain 24hr cm | rain mn cm | humidity % | barometer mb |
| 20260506082009 | 11 | 188 | 3.2 | 8.0 | 0.00 | 0.03 | 0.03 | 85 | 1017.5 |
| 20260506081526 | 11 | 206 | 3.2 | 8.0 | 0.03 | 0.03 | 0.03 | 85 | 1017.5 |
| 20260506081012 | 11 | 219 | 4.8 | 8.0 | 0.03 | 0.03 | 0.03 | 85 | 1017.5 |
| 20260506080510 | 11 | 209 | 3.2 | 8.0 | 0.03 | 0.03 | 0.03 | 85 | 1017.5 |
| 20260506073508 | 11 | 194 | 1.6 | 3.2 | 0.03 | 0.03 | 0.03 | 84 | 1017.3 |
| 20260506073022 | 11 | 217 | 1.6 | 3.2 | 0.03 | 0.03 | 0.03 | 84 | 1017.2 |
| 20260506072513 | 11 | 240 | 1.6 | 3.2 | 0.03 | 0.03 | 0.03 | 84 | 1017.2 |
| 20260506072014 | 11 | 220 | 0.0 | 3.2 | 0.03 | 0.03 | 0.03 | 84 | 1017.1 |
| 20260506071523 | 12 | 246 | 1.6 | 4.8 | 0.00 | 0.00 | 0.00 | 83 | 1017.1 |
| 20260506071009 | 12 | 252 | 1.6 | 4.8 | 0.00 | 0.00 | 0.00 | 83 | 1017.1 |
| 20260506070509 | 12 | 239 | 3.2 | 4.8 | 0.00 | 0.00 | 0.00 | 83 | 1017.0 |
| 20260506062508 | 12 | 224 | 4.8 | 9.7 | 0.00 | 0.00 | 0.00 | 81 | 1016.5 |
| 20260506062010 | 12 | 249 | 4.8 | 11.3 | 0.00 | 0.00 | 0.00 | 81 | 1016.6 |
| 20260506061542 | 12 | 223 | 4.8 | 11.3 | 0.00 | 0.00 | 0.00 | 80 | 1016.6 |
| 20260506061010 | 12 | 221 | 1.6 | 8.0 | 0.00 | 0.00 | 0.00 | 80 | 1016.5 |
| 20260506060510 | 12 | 232 | 3.2 | 8.0 | 0.00 | 0.00 | 0.00 | 80 | 1016.4 |
| 20260506051009 | 13 | 223 | 4.8 | 12.9 | 0.00 | 0.00 | 0.00 | 78 | 1016.0 |
| 20260506050520 | 13 | 223 | 4.8 | 12.9 | 0.00 | 0.00 | 0.00 | 77 | 1015.9 |
| 20260506045009 | 14 | 234 | 6.4 | 12.9 | 0.00 | 0.00 | 0.00 | 76 | 1015.9 |
| 20260506044530 | 14 | 242 | 6.4 | 14.5 | 0.00 | 0.00 | 0.00 | 76 | 1015.9 |
| 20260506044010 | 15 | 250 | 8.0 | 14.5 | 0.00 | 0.00 | 0.00 | 76 | 1015.9 |
| 20260506043510 | 14 | 244 | 8.0 | 11.3 | 0.00 | 0.00 | 0.00 | 76 | 1015.8 |
| 20260506043024 | 15 | 229 | 3.2 | 11.3 | 0.00 | 0.00 | 0.00 | 76 | 1015.8 |
| 20260506042507 | 15 | 248 | 6.4 | 12.9 | 0.00 | 0.00 | 0.00 | 76 | 1015.8 |
| 20260506042008 | 15 | 210 | 6.4 | 12.9 | 0.00 | 0.00 | 0.00 | 76 | 1015.8 |
| 20260506041524 | 15 | 254 | 1.6 | 4.8 | 0.00 | 0.00 | 0.00 | 77 | 1015.7 |
| 20260506041007 | 15 | 281 | 3.2 | 6.4 | 0.00 | 0.00 | 0.00 | 76 | 1015.7 |
| 20260506040512 | 15 | 211 | 3.2 | 6.4 | 0.00 | 0.00 | 0.00 | 76 | 1015.6 |
| 20260506040022 | 15 | 235 | 3.2 | 6.4 | 0.00 | 0.00 | 0.00 | 76 | 1015.6 |
| 20260506035510 | 15 | 254 | 3.2 | 4.8 | 0.00 | 0.00 | 0.00 | 75 | 1015.6 |
| 20260506035016 | 15 | 251 | 3.2 | 4.8 | 0.00 | 0.00 | 0.00 | 75 | 1015.5 |
| 20260506034528 | 15 | 238 | 1.6 | 6.4 | 0.00 | 0.00 | 0.00 | 74 | 1015.5 |
| 20260506034007 | 16 | 243 | 3.2 | 6.4 | 0.00 | 0.00 | 0.00 | 74 | 1015.4 |
| 20260506033508 | 16 | 239 | 4.8 | 9.7 | 0.00 | 0.00 | 0.00 | 73 | 1015.4 |
| 20260506033027 | 16 | 248 | 4.8 | 9.7 | 0.00 | 0.00 | 0.00 | 73 | 1015.3 |
| 20260506032511 | 16 | 226 | 4.8 | 8.0 | 0.00 | 0.00 | 0.00 | 73 | 1015.1 |
| 20260506032010 | 16 | 252 | 3.2 | 8.0 | 0.00 | 0.00 | 0.00 | 72 | 1015.1 |
| 20260506031519 | 16 | 265 | 4.8 | 8.0 | 0.00 | 0.00 | 0.00 | 72 | 1015.1 |
| 20260506031011 | 16 | 242 | 3.2 | 8.0 | 0.00 | 0.00 | 0.00 | 72 | 1015.1 |
| 20260506030510 | 16 | 248 | 3.2 | 6.4 | 0.00 | 0.00 | 0.00 | 71 | 1015.1 |
| 20260506030027 | 16 | 268 | 1.6 | 6.4 | 0.00 | 0.00 | 0.00 | 71 | 1015.0 |
| 20260506025509 | 16 | 248 | 3.2 | 8.0 | 0.00 | 0.00 | 0.00 | 71 | 1015.0 |
| 20260506025011 | 17 | 241 | 3.2 | 8.0 | 0.00 | 0.00 | 0.00 | 70 | 1015.0 |
| 20260506024538 | 17 | 275 | 1.6 | 6.4 | 0.00 | 0.00 | 0.00 | 71 | 1015.0 |
| 20260506024014 | 17 | 223 | 3.2 | 6.4 | 0.00 | 0.00 | 0.00 | 69 | 1015.0 |
| 20260506023513 | 17 | 220 | 3.2 | 6.4 | 0.00 | 0.00 | 0.00 | 69 | 1015.0 |
| 20260506023026 | 17 | 262 | 1.6 | 6.4 | 0.00 | 0.00 | 0.00 | 69 | 1015.0 |
| 20260506022515 | 17 | 220 | 3.2 | 6.4 | 0.00 | 0.00 | 0.00 | 70 | 1015.1 |
| 20260506022008 | 17 | 243 | 3.2 | 4.8 | 0.00 | 0.00 | 0.00 | 69 | 1015.1 |
| 20260506021531 | 17 | 271 | 3.2 | 9.7 | 0.00 | 0.00 | 0.00 | 69 | 1015.2 |
| 20260506021012 | 17 | 271 | 4.8 | 9.7 | 0.00 | 0.00 | 0.00 | 69 | 1015.1 |
| 20260506020509 | 17 | 267 | 3.2 | 4.8 | 0.00 | 0.00 | 0.00 | 69 | 1015.2 |
| 20260506020021 | 17 | 286 | 3.2 | 9.7 | 0.00 | 0.00 | 0.00 | 68 | 1015.2 |
| 20260506015509 | 17 | 275 | 1.6 | 9.7 | 0.00 | 0.00 | 0.00 | 69 | 1015.1 |
| 20260506015009 | 17 | 257 | 3.2 | 9.7 | 0.00 | 0.00 | 0.00 | 70 | 1015.2 |
| 20260506014530 | 17 | 257 | 3.2 | 9.7 | 0.00 | 0.00 | 0.00 | 69 | 1015.1 |
| 20260506014014 | 17 | 260 | 3.2 | 9.7 | 0.00 | 0.00 | 0.00 | 70 | 1015.1 |
| 20260506013512 | 17 | 267 | 3.2 | 9.7 | 0.00 | 0.00 | 0.00 | 69 | 1015.2 |
| 20260506013025 | 17 | 257 | 3.2 | 9.7 | 0.00 | 0.00 | 0.00 | 69 | 1015.1 |
| 20260506012507 | 17 | 284 | 3.2 | 9.7 | 0.00 | 0.00 | 0.00 | 69 | 1015.1 |
| 20260506012007 | 17 | 269 | 4.8 | 9.7 | 0.00 | 0.00 | 0.00 | 69 | 1015.2 |
| 20260506011515 | 17 | 288 | 4.8 | 9.7 | 0.00 | 0.00 | 0.00 | 69 | 1015.2 |
| 20260506011010 | 17 | 287 | 3.2 | 9.7 | 0.00 | 0.00 | 0.00 | 69 | 1015.2 |
| 20260506010507 | 17 | 273 | 3.2 | 6.4 | 0.00 | 0.00 | 0.00 | 69 | 1015.3 |
| 20260506010019 | 17 | 265 | 3.2 | 6.4 | 0.00 | 0.00 | 0.00 | 68 | 1015.3 |
| 20260506005509 | 17 | 290 | 1.6 | 6.4 | 0.00 | 0.00 | 0.00 | 71 | 1015.2 |
| 20260506005007 | 16 | 281 | 3.2 | 6.4 | 0.00 | 0.00 | 0.00 | 71 | 1015.2 |
| 20260506004506 | 16 | 247 | 3.2 | 9.7 | 0.00 | 0.00 | 0.00 | 71 | 1015.2 |
| 20260506004004 | 16 | 288 | 4.8 | 9.7 | 0.00 | 0.00 | 0.00 | 70 | 1015.2 |
| 20260506003504 | 16 | 279 | 3.2 | 9.7 | 0.00 | 0.00 | 0.00 | 71 | 1015.2 |
| 20260506003008 | 16 | 243 | 4.8 | 11.3 | 0.00 | 0.00 | 0.00 | 71 | 1015.2 |
| 20260506002506 | 16 | 291 | 4.8 | 11.3 | 0.00 | 0.00 | 0.00 | 73 | 1015.3 |
| 20260506002005 | 16 | 272 | 3.2 | 11.3 | 0.00 | 0.00 | 0.00 | 72 | 1015.3 |
| 20260506001512 | 16 | 281 | 4.8 | 11.3 | 0.00 | 0.00 | 0.00 | 71 | 1015.4 |
| 20260506001006 | 16 | 281 | 4.8 | 11.3 | 0.00 | 0.00 | 0.00 | 72 | 1015.3 |
| 20260506000508 | 16 | 287 | 3.2 | 11.3 | 0.00 | 0.00 | 0.00 | 72 | 1015.4 |
| 20260506000016 | 16 | 286 | 4.8 | 12.9 | 0.00 | 0.00 | 0.00 | 72 | 1015.4 |
| 20260505235507 | 16 | 266 | 4.8 | 12.9 | 0.00 | 0.00 | 0.00 | 73 | 1015.4 |
| 20260505235010 | 16 | 272 | 8.0 | 12.9 | 0.00 | 0.00 | 0.00 | 70 | 1015.4 |
| 20260505234522 | 16 | 337 | 4.8 | 11.3 | 0.00 | 0.00 | 0.00 | 72 | 1015.6 |
| 20260505234013 | 16 | 275 | 4.8 | 11.3 | 0.00 | 0.00 | 0.00 | 73 | 1015.7 |
| 20260505233503 | 16 | 271 | 6.4 | 11.3 | 0.00 | 0.00 | 0.00 | 72 | 1015.8 |
| 20260505233006 | 16 | 260 | 4.8 | 11.3 | 0.00 | 0.00 | 0.00 | 74 | 1015.8 |
| 20260505232507 | 16 | 286 | 6.4 | 11.3 | 0.00 | 0.00 | 0.00 | 73 | 1015.9 |
| 20260505232006 | 16 | 269 | 6.4 | 12.9 | 0.00 | 0.00 | 0.00 | 73 | 1015.9 |
| 20260505231510 | 16 | 276 | 4.8 | 14.5 | 0.00 | 0.00 | 0.00 | 75 | 1015.9 |
| 20260505231008 | 16 | 255 | 8.0 | 14.5 | 0.00 | 0.00 | 0.00 | 72 | 1015.9 |
| 20260505230505 | 16 | 276 | 4.8 | 12.9 | 0.00 | 0.00 | 0.00 | 73 | 1016.0 |
| 20260505230018 | 15 | 260 | 4.8 | 12.9 | 0.00 | 0.00 | 0.00 | 77 | 1016.1 |
| 20260505225508 | 15 | 276 | 6.4 | 11.3 | 0.00 | 0.00 | 0.00 | 76 | 1016.1 |
| 20260505225009 | 15 | 281 | 6.4 | 11.3 | 0.00 | 0.00 | 0.00 | 75 | 1016.1 |
| 20260505224520 | 16 | 273 | 4.8 | 14.5 | 0.00 | 0.00 | 0.00 | 73 | 1016.2 |
| 20260505224010 | 15 | 275 | 6.4 | 14.5 | 0.00 | 0.00 | 0.00 | 75 | 1016.2 |
| 20260505223512 | 15 | 270 | 8.0 | 12.9 | 0.00 | 0.00 | 0.00 | 75 | 1016.2 |
| 20260505223027 | 15 | 273 | 6.4 | 11.3 | 0.00 | 0.00 | 0.00 | 77 | 1016.3 |
| 20260505222504 | 15 | 254 | 6.4 | 11.3 | 0.00 | 0.00 | 0.00 | 77 | 1016.3 |
| 20260505222005 | 15 | 273 | 4.8 | 9.7 | 0.00 | 0.00 | 0.00 | 76 | 1016.3 |
| 20260505221508 | 15 | 259 | 4.8 | 12.9 | 0.00 | 0.00 | 0.00 | 76 | 1016.4 |
| 20260505221004 | 15 | 283 | 6.4 | 12.9 | 0.00 | 0.00 | 0.00 | 76 | 1016.4 |
| 20260505220507 | 15 | 243 | 3.2 | 11.3 | 0.00 | 0.00 | 0.00 | 77 | 1016.5 |
| 20260505220014 | 15 | 285 | 4.8 | 11.3 | 0.00 | 0.00 | 0.00 | 76 | 1016.5 |
| 20260505215506 | 15 | 280 | 3.2 | 11.3 | 0.00 | 0.00 | 0.00 | 77 | 1016.5 |
| 20260505215006 | 15 | 279 | 4.8 | 14.5 | 0.00 | 0.00 | 0.00 | 77 | 1016.5 |
| 20260505214524 | 14 | 267 | 6.4 | 14.5 | 0.00 | 0.00 | 0.00 | 78 | 1016.6 |
| 20260505214008 | 14 | 277 | 3.2 | 11.3 | 0.00 | 0.00 | 0.00 | 78 | 1016.6 |
| 20260505213507 | 15 | 263 | 4.8 | 12.9 | 0.00 | 0.00 | 0.00 | 78 | 1016.7 |
| 20260505213024 | 14 | 278 | 6.4 | 12.9 | 0.00 | 0.00 | 0.00 | 79 | 1016.7 |
| 20260505212510 | 14 | 261 | 8.0 | 11.3 | 0.00 | 0.00 | 0.00 | 78 | 1016.6 |
| 20260505212011 | 15 | 295 | 4.8 | 11.3 | 0.00 | 0.00 | 0.00 | 78 | 1016.7 |
| 20260505211508 | 14 | 256 | 6.4 | 14.5 | 0.00 | 0.00 | 0.00 | 78 | 1016.7 |
| 20260505211004 | 14 | 279 | 4.8 | 14.5 | 0.00 | 0.00 | 0.00 | 78 | 1016.7 |
| 20260505210508 | 14 | 271 | 6.4 | 14.5 | 0.00 | 0.00 | 0.00 | 78 | 1016.7 |
| 20260505210012 | 15 | 260 | 6.4 | 12.9 | 0.00 | 0.00 | 0.00 | 77 | 1016.7 |
| 20260505205505 | 15 | 264 | 4.8 | 11.3 | 0.00 | 0.00 | 0.00 | 77 | 1016.7 |
| 20260505205007 | 15 | 261 | 3.2 | 9.7 | 0.00 | 0.00 | 0.00 | 78 | 1016.8 |
| 20260505204517 | 14 | 239 | 3.2 | 9.7 | 0.00 | 0.00 | 0.00 | 79 | 1016.8 |
| 20260505204009 | 14 | 266 | 4.8 | 12.9 | 0.00 | 0.00 | 0.00 | 79 | 1016.8 |
| 20260505203515 | 14 | 267 | 6.4 | 12.9 | 0.00 | 0.00 | 0.00 | 78 | 1016.8 |
| 20260505203022 | 14 | 273 | 6.4 | 12.9 | 0.00 | 0.00 | 0.00 | 79 | 1016.8 |
| 20260505202508 | 14 | 259 | 6.4 | 12.9 | 0.00 | 0.00 | 0.00 | 79 | 1016.8 |
| 20260505202011 | 14 | 266 | 4.8 | 12.9 | 0.00 | 0.00 | 0.00 | 80 | 1016.8 |
| 20260505201524 | 13 | 240 | 3.2 | 12.9 | 0.00 | 0.00 | 0.00 | 79 | 1016.8 |
| 20260505201012 | 13 | 272 | 6.4 | 11.3 | 0.00 | 0.00 | 0.00 | 80 | 1016.8 |
| 20260505200505 | 13 | 263 | 4.8 | 11.3 | 0.00 | 0.00 | 0.00 | 80 | 1016.7 |
| 20260505200008 | 13 | 273 | 4.8 | 12.9 | 0.00 | 0.00 | 0.00 | 79 | 1016.8 |
| 20260505195505 | 14 | 277 | 4.8 | 12.9 | 0.00 | 0.00 | 0.00 | 79 | 1016.7 |
| 20260505195006 | 13 | 273 | 6.4 | 11.3 | 0.00 | 0.00 | 0.00 | 79 | 1016.8 |
| 20260505194516 | 13 | 267 | 3.2 | 11.3 | 0.00 | 0.00 | 0.00 | 79 | 1016.8 |
| 20260505194009 | 14 | 227 | 3.2 | 9.7 | 0.00 | 0.00 | 0.00 | 79 | 1016.8 |
| 20260505193511 | 14 | 273 | 3.2 | 9.7 | 0.00 | 0.00 | 0.00 | 79 | 1016.8 |
| 20260505193018 | 13 | 295 | 1.6 | 11.3 | 0.00 | 0.00 | 0.00 | 81 | 1016.8 |
| 20260505192516 | 13 | 268 | 4.8 | 11.3 | 0.00 | 0.00 | 0.00 | 80 | 1016.7 |
| 20260505192009 | 13 | 281 | 3.2 | 9.7 | 0.00 | 0.00 | 0.00 | 81 | 1016.7 |
| 20260505191526 | 13 | 265 | 3.2 | 9.7 | 0.00 | 0.00 | 0.00 | 80 | 1016.7 |
| 20260505191007 | 13 | 283 | 3.2 | 11.3 | 0.00 | 0.00 | 0.00 | 80 | 1016.7 |
| 20260505190506 | 13 | 267 | 3.2 | 11.3 | 0.00 | 0.00 | 0.00 | 81 | 1016.7 |
| 20260505190029 | 13 | 269 | 4.8 | 11.3 | 0.00 | 0.00 | 0.00 | 81 | 1016.7 |
| 20260505185507 | 13 | 280 | 4.8 | 11.3 | 0.00 | 0.00 | 0.00 | 81 | 1016.7 |
| 20260505185010 | 13 | 275 | 4.8 | 11.3 | 0.00 | 0.00 | 0.00 | 81 | 1016.7 |
| 20260505184514 | 13 | 254 | 3.2 | 11.3 | 0.00 | 0.00 | 0.00 | 81 | 1016.7 |
| 20260505184006 | 13 | 245 | 3.2 | 11.3 | 0.00 | 0.00 | 0.00 | 82 | 1016.8 |
| 20260505183507 | 13 | 272 | 1.6 | 6.4 | 0.00 | 0.00 | 0.00 | 81 | 1016.8 |
| 20260505183027 | 13 | 261 | 3.2 | 6.4 | 0.00 | 0.00 | 0.00 | 81 | 1016.7 |
| 20260505182516 | 13 | 271 | 1.6 | 6.4 | 0.00 | 0.00 | 0.00 | 82 | 1016.7 |
| 20260505182014 | 13 | 242 | 3.2 | 9.7 | 0.00 | 0.00 | 0.00 | 82 | 1016.7 |
| 20260505181524 | 13 | 256 | 3.2 | 11.3 | 0.00 | 0.00 | 0.00 | 81 | 1016.7 |
| 20260505181009 | 13 | 263 | 4.8 | 11.3 | 0.00 | 0.00 | 0.00 | 81 | 1016.6 |
| 20260505180508 | 13 | 234 | 3.2 | 9.7 | 0.00 | 0.00 | 0.00 | 81 | 1016.7 |
| 20260505180026 | 13 | 231 | 4.8 | 9.7 | 0.00 | 0.00 | 0.00 | 80 | 1016.7 |
| 20260505175511 | 13 | 225 | 4.8 | 9.7 | 0.00 | 0.00 | 0.00 | 81 | 1016.6 |
| 20260505175012 | 13 | 240 | 6.4 | 9.7 | 0.00 | 0.00 | 0.00 | 80 | 1016.6 |
| 20260505174512 | 13 | 263 | 4.8 | 9.7 | 0.00 | 0.00 | 0.00 | 81 | 1016.6 |
| 20260505174006 | 13 | 257 | 4.8 | 9.7 | 0.00 | 0.00 | 0.00 | 81 | 1016.6 |
| 20260505173509 | 13 | 240 | 4.8 | 11.3 | 0.00 | 0.00 | 0.00 | 81 | 1016.6 |
| 20260505173017 | 13 | 228 | 4.8 | 11.3 | 0.00 | 0.00 | 0.00 | 81 | 1016.5 |
| 20260505172505 | 13 | 275 | 3.2 | 8.0 | 0.00 | 0.00 | 0.00 | 82 | 1016.5 |
| 20260505172009 | 12 | 270 | 3.2 | 8.0 | 0.00 | 0.00 | 0.00 | 82 | 1016.5 |
| 20260505171521 | 12 | 281 | 3.2 | 4.8 | 0.00 | 0.00 | 0.00 | 82 | 1016.5 |
| 20260505171009 | 12 | 274 | 3.2 | 4.8 | 0.00 | 0.00 | 0.00 | 82 | 1016.4 |
| 20260505170509 | 12 | 283 | 3.2 | 6.4 | 0.00 | 0.00 | 0.00 | 83 | 1016.3 |
| 20260505170028 | 12 | 273 | 3.2 | 6.4 | 0.00 | 0.00 | 0.00 | 83 | 1016.4 |
| 20260505165509 | 12 | 267 | 3.2 | 6.4 | 0.00 | 0.00 | 0.00 | 83 | 1016.4 |
| 20260505165008 | 12 | 217 | 1.6 | 6.4 | 0.00 | 0.00 | 0.00 | 83 | 1016.3 |
| 20260505164526 | 12 | 274 | 3.2 | 6.4 | 0.00 | 0.00 | 0.00 | 83 | 1016.3 |
| 20260505164014 | 12 | 271 | 3.2 | 6.4 | 0.00 | 0.00 | 0.00 | 82 | 1016.3 |
| 20260505163507 | 12 | 239 | 3.2 | 6.4 | 0.00 | 0.00 | 0.00 | 82 | 1016.3 |
| 20260505163017 | 12 | 237 | 3.2 | 6.4 | 0.00 | 0.00 | 0.00 | 83 | 1016.2 |
| 20260505162505 | 12 | 227 | 3.2 | 6.4 | 0.00 | 0.00 | 0.00 | 83 | 1016.2 |
| 20260505162007 | 12 | 253 | 1.6 | 4.8 | 0.00 | 0.00 | 0.00 | 83 | 1016.2 |
| 20260505161519 | 12 | 254 | 3.2 | 6.4 | 0.00 | 0.00 | 0.00 | 82 | 1016.2 |
| 20260505161007 | 12 | 254 | 3.2 | 6.4 | 0.00 | 0.00 | 0.00 | 82 | 1016.1 |
| 20260505160514 | 12 | 252 | 1.6 | 4.8 | 0.00 | 0.00 | 0.00 | 83 | 1016.1 |
| 20260505153026 | 12 | 208 | 3.2 | 8.0 | 0.00 | 0.00 | 0.00 | 83 | 1015.8 |
| 20260505152509 | 12 | 256 | 1.6 | 8.0 | 0.00 | 0.00 | 0.00 | 83 | 1015.8 |
| 20260505152016 | 12 | 259 | 3.2 | 8.0 | 0.00 | 0.00 | 0.00 | 82 | 1015.8 |
| 20260505151518 | 12 | 250 | 3.2 | 6.4 | 0.00 | 0.00 | 0.00 | 82 | 1015.8 |
| 20260505151012 | 12 | 227 | 3.2 | 8.0 | 0.00 | 0.00 | 0.00 | 82 | 1015.6 |
| 20260505150516 | 12 | 259 | 3.2 | 8.0 | 0.00 | 0.00 | 0.00 | 82 | 1015.6 |
| 20260505140507 | 12 | 244 | 6.4 | 12.9 | 0.00 | 0.00 | 0.00 | 82 | 1015.2 |
| 20260505125004 | 12 | 256 | 3.2 | 11.3 | 0.00 | 0.00 | 0.00 | 84 | 1014.3 |
| 20260505124501 | 12 | 177 | 4.8 | 9.7 | 0.00 | 0.03 | 0.00 | 84 | 1014.3 |
| 20260505124005 | 12 | 211 | 1.6 | 11.3 | 0.00 | 0.03 | 0.00 | 84 | 1014.3 |
| 20260505123504 | 12 | 246 | 4.8 | 11.3 | 0.00 | 0.03 | 0.00 | 84 | 1014.3 |
| 20260505123007 | 12 | 235 | 4.8 | 11.3 | 0.00 | 0.03 | 0.00 | 84 | 1014.3 |
| 20260505122508 | 12 | 222 | 4.8 | 11.3 | 0.00 | 0.03 | 0.00 | 84 | 1014.2 |
| 20260505122004 | 12 | 240 | 4.8 | 9.7 | 0.00 | 0.03 | 0.00 | 83 | 1014.2 |
| 20260505121514 | 12 | 238 | 4.8 | 9.7 | 0.00 | 0.03 | 0.00 | 83 | 1014.2 |
| 20260505121007 | 12 | 233 | 6.4 | 9.7 | 0.00 | 0.03 | 0.00 | 83 | 1014.1 |
| 20260505120511 | 12 | 229 | 3.2 | 9.7 | 0.00 | 0.03 | 0.00 | 83 | 1014.1 |
| 20260505120030 | 12 | 226 | 4.8 | 9.7 | 0.00 | 0.03 | 0.00 | 83 | 1014.1 |
| 20260505115508 | 12 | 232 | 4.8 | 9.7 | 0.00 | 0.03 | 0.00 | 83 | 1014.1 |
| 20260505115010 | 12 | 236 | 4.8 | 11.3 | 0.00 | 0.03 | 0.00 | 83 | 1014.1 |
| 20260505114523 | 12 | 173 | 4.8 | 12.9 | 0.00 | 0.03 | 0.00 | 83 | 1014.1 |
| 20260505114007 | 12 | 230 | 8.0 | 12.9 | 0.00 | 0.03 | 0.00 | 83 | 1014.1 |
| 20260505113503 | 12 | 252 | 6.4 | 14.5 | 0.00 | 0.03 | 0.00 | 83 | 1014.0 |
| 20260505113006 | 12 | 221 | 4.8 | 14.5 | 0.00 | 0.03 | 0.00 | 83 | 1014.1 |
| 20260505112504 | 12 | 223 | 6.4 | 11.3 | 0.00 | 0.03 | 0.00 | 83 | 1014.1 |
| 20260505112009 | 12 | 242 | 4.8 | 12.9 | 0.00 | 0.03 | 0.00 | 83 | 1014.1 |
| 20260505111515 | 12 | 223 | 4.8 | 16.1 | 0.00 | 0.03 | 0.00 | 83 | 1014.0 |
| 20260505111005 | 12 | 212 | 6.4 | 17.7 | 0.00 | 0.03 | 0.00 | 83 | 1014.0 |
| 20260505110505 | 12 | 249 | 11.3 | 17.7 | 0.00 | 0.03 | 0.00 | 83 | 1014.1 |
| 20260505102004 | 12 | 235 | 6.4 | 14.5 | 0.00 | 0.03 | 0.00 | 84 | 1013.8 |
| 20260505101511 | 12 | 240 | 8.0 | 16.1 | 0.00 | 0.03 | 0.00 | 84 | 1013.8 |
| 20260505101010 | 12 | 218 | 8.0 | 16.1 | 0.00 | 0.03 | 0.00 | 84 | 1013.8 |
| 20260505100506 | 12 | 242 | 6.4 | 14.5 | 0.00 | 0.03 | 0.00 | 84 | 1013.7 |
| 20260505100014 | 12 | 240 | 8.0 | 14.5 | 0.00 | 0.03 | 0.00 | 84 | 1013.7 |
| 20260505095505 | 12 | 262 | 6.4 | 14.5 | 0.00 | 0.03 | 0.00 | 84 | 1013.7 |
| 20260505095006 | 12 | 258 | 8.0 | 12.9 | 0.00 | 0.03 | 0.00 | 84 | 1013.7 |
| 20260505094521 | 12 | 247 | 6.4 | 12.9 | 0.00 | 0.03 | 0.00 | 84 | 1013.7 |
| 20260505094011 | 12 | 217 | 6.4 | 14.5 | 0.00 | 0.03 | 0.00 | 84 | 1013.7 |
| 20260505093510 | 12 | 221 | 8.0 | 14.5 | 0.00 | 0.03 | 0.00 | 84 | 1013.6 |
| 20260505093023 | 12 | 221 | 9.7 | 19.3 | 0.00 | 0.03 | 0.00 | 84 | 1013.6 |
| 20260505092513 | 12 | 217 | 11.3 | 19.3 | 0.00 | 0.03 | 0.00 | 84 | 1013.5 |
| 20260505092005 | 12 | 262 | 8.0 | 19.3 | 0.00 | 0.03 | 0.00 | 84 | 1013.5 |
| 20260505091507 | 12 | 223 | 8.0 | 16.1 | 0.00 | 0.03 | 0.00 | 84 | 1013.5 |
| 20260505091005 | 12 | 207 | 9.7 | 16.1 | 0.00 | 0.03 | 0.00 | 84 | 1013.5 |
| 20260505090505 | 12 | 227 | 8.0 | 17.7 | 0.00 | 0.03 | 0.00 | 84 | 1013.5 |
| 20260505090017 | 12 | 264 | 12.9 | 17.7 | 0.00 | 0.03 | 0.00 | 84 | 1013.4 |
| 20260505085506 | 12 | 236 | 9.7 | 16.1 | 0.00 | 0.03 | 0.00 | 84 | 1013.3 |
| 20260505085007 | 12 | 209 | 6.4 | 14.5 | 0.00 | 0.03 | 0.00 | 84 | 1013.3 |
| 20260505084516 | 12 | 211 | 6.4 | 16.1 | 0.00 | 0.03 | 0.00 | 84 | 1013.2 |
| 20260505084011 | 12 | 244 | 9.7 | 16.1 | 0.00 | 0.03 | 0.00 | 84 | 1013.4 |
| 20260505083512 | 12 | 261 | 6.4 | 16.1 | 0.00 | 0.03 | 0.00 | 84 | 1013.2 |
| 20260505083022 | 12 | 224 | 8.0 | 19.3 | 0.00 | 0.03 | 0.00 | 84 | 1013.2 |
| 20260505082513 | 12 | 227 | 8.0 | 19.3 | 0.00 | 0.03 | 0.00 | 84 | 1013.2 |